Current weather by "City, St" or "zip code"  
 
Advertise Here

Current Conditions: Terre Haute Regional Airport, IN

Fair


32.0 F

Last Updated on Jan 20 2021, 1:53 pm EST
Humidity: 54%
Wind Speed: SW 12.7 mph
Barometer 30.23 in
Dewpoint: 17.1 F
Visibility: 10.00 mi
Precip: --
Heat Index: NA
Wind Chill: 22 F
Current conditions at:

Terre Haute Regional Airport, IN (KHUF)

Lat: 39.4429 Lon: 87.32207

Local Radar Image active severe weather and emergency alerts image image weather storm and storm spotter reports image weather observation monitoring service image
Local
Radar
Active
Alerts
Storm Reports Obs
Monitoring

Sign-up For Email & Text Message Weather Alert Notification Services


Advertise Here

Observation History for Terre Haute Regional Airport, IN


Time Wind
(mph)
Vis
(mi)
Weather Precip (in) Temperature (F) Relative
Humidity
Wind
Chill
(F)
Heat
Index
(F)
Pressure
Air Dwpt altimeter
(in)
sea level
(mb)
Rmks
1:53 pm EST SW 12.7 10.00 Fair -- 32.0 17.1 54% 22 NA 30.23 1024.4
12:53 pm EST SW 9.2 10.00 Fair -- 31.0 17.1 56% 23 NA 30.27 1025.5
11:53 am EST S 9.2 10.00 Fair -- 28.0 17.1 63% 19 NA 30.31 1027.1
10:53 am EST 5.8 10.00 Fair -- 26.0 18.0 71% 19 NA 30.34 1028.1
9:53 am EST N 0.0 10.00 Mostly Cloudy -- 23.0 16.0 74% NA NA 30.34 1028.2
8:53 am EST NW 3.5 10.00 Overcast -- 22.0 16.0 78% NA NA 30.33 1027.8
7:53 am EST NW 5.8 10.00 Overcast -- 22.0 16.0 78% 15 NA 30.33 1027.6
6:53 am EST NW 5.8 10.00 Overcast -- 23.0 16.0 74% 16 NA 30.31 1027.0
5:53 am EST NW 5.8 10.00 Partly Cloudy -- 24.0 17.1 75% 17 NA 30.31 1026.8
4:53 am EST NW 8.1 10.00 Mostly Cloudy -- 26.0 17.1 69% 17 NA 30.31 1027.0
3:53 am EST NW 15.0 G 25.3 10.00 Overcast -- 28.0 19.9 72% 16 NA 30.31 1026.7
2:53 am EST NW 12.7 G 19.6 10.00 Mostly Cloudy -- 28.0 19.0 69% 17 NA 30.29 1026.1
1:53 am EST W 20.7 G 32.2 10.00 Fair and Breezy -- 29.0 19.0 66% 16 NA 30.25 1025.0
12:53 am EST W 19.6 G 32.2 10.00 Partly Cloudy Trace 32.0 21.9 66% 20 NA 30.24 1024.4
11:53 pm EST W 16.1 G 35.7 10.00 Mostly Cloudy -- 36.0 27.0 70% 26 NA 30.21 1023.5
10:53 pm EST W 11.5 10.00 Overcast -- 35.0 28.9 78% 27 NA 30.21 1023.6
9:53 pm EST W 13.8 10.00 Overcast -- 35.0 28.0 76% 26 NA 30.22 1023.9
8:53 pm EST W 15.0 G 24.2 10.00 Mostly Cloudy -- 35.0 28.0 76% 25 NA 30.22 1023.8
7:53 pm EST W 9.2 10.00 Mostly Cloudy -- 37.0 28.0 70% 30 NA 30.21 1023.4
6:53 pm EST SW 8.1 10.00 Overcast -- 38.0 27.0 65% 32 NA 30.21 1023.5
5:53 pm EST SW 10.4 10.00 Overcast -- 39.0 26.1 60% 32 NA 30.22 1023.8
4:53 pm EST SW 11.5 10.00 Overcast -- 40.0 24.1 53% 33 NA 30.21 1023.6
3:53 pm EST SW 10.4 10.00 A Few Clouds -- 41.0 23.0 49% 35 NA 30.22 1023.7
2:53 pm EST W 10.4 10.00 Fair -- 41.0 23.0 49% 35 NA 30.22 1023.9

Regional Weather Observation


Terre Haute Regional Airport, IN (KHUF)

Fair
32.0 F

Robinson Municipal Airport, IL (KRSV)

Fair
33.0 F

Crawfordsville Municipal Airport, IN (KCFJ)

Fair
28.0 F

Putnam County Regional Airport, IN (KGPC)

Fair
29.0 F

Putnam County Regional Airport, IN (KGPC)

Fair
29.0 F

Mattoon / Charleston, Coles County Memorial Airport, IL (KMTO)

Fair
32.0 F